カタログに戻る

ARVAKER-2

運用中科学SSO
NORAD 64567·PAYLOAD·🇳🇴 Norway

打ち上げ Jun 23, 2025 から Vandenberg Space Force Base

Loading…

次のパス (今後24時間)

TLE

最新Source: Space-Track

元期: Sep 14, 2026, 14:20 UTC

1 64567U 25135AR  26257.59753688  .00001860  00000-0  18054-3 0  9993
2 64567  97.7810  10.8130 0002192  56.3990 303.7438 14.93851306 67226

AllMySatでARVAKER-2をリアルタイム追跡

Download on the App Store